Munising, MI

9:42 PM EDT on March 22, 2017 (GMT -0400)
Munising

Weather History for KP53 - April, 2013

Change the Weather History Date:

Sunday, April 7, 2013

  Actual Average (KISQ) Record (KISQ)
Temperature  
Mean Temperature 32 °F -  
Max Temperature 36 °F 44 °F 60 °F (1986)
Min Temperature 28 °F 24 °F 2 °F (1972)
Degree Days  
Heating Degree Days 33    
Moisture  
Dew Point 28 °F    
Average Humidity 80    
Maximum Humidity 89    
Minimum Humidity 70    
Precipitation  
Precipitation 0.15 in - - ()
Sea Level Pressure  
Sea Level Pressure 29.80 in    
Wind  
Wind Speed 10 mph (NNW)    
Max Wind Speed 20 mph    
Max Gust Speed 26 mph    
Averages and records for this station are not official NWS values.
T = Trace of Precipitation, MM = Missing Value Source: NWS Daily Summary

Daily Weather History Graph

Daily Weather History Graph

Search for Another Location

Airport or City:

Trip Planner

Search our weather history database for the weather conditions in past years. The results will help you decide how hot, cold, wet, or windy it might be!

Date:

Astronomy

Apr. 07, 2013 Rise Set
Actual Time 7:14 AM EDT 8:23 PM EDT
Civil Twilight 6:43 AM EDT 8:54 PM EDT
Nautical Twilight 6:06 AM EDT 9:32 PM EDT
Astronomical Twilight 5:27 AM EDT 10:11 PM EDT
Moon 5:40 AM EDT (4/7) 5:48 PM EDT (4/7)
Length of Visible Light 14h 11m
Length of Day
13h 09m
Waning Crescent, 8% of the Moon is Illuminated
Apr 7
Waning Crescent
Apr 10
New
Apr 18
First Quarter
Apr 25
Full
May 2
Last Quarter

Hourly Weather History & Observations

Time (EDT) Temp. Windchill Dew Point Humidity Pressure Visibility Wind Dir Wind Speed Gust Speed Precip Events Conditions
12:56 AM 34.0 °F 28.0 °F 30.9 °F 89% 29.52 in - North 6.9 mph - 0.03 in   Unknown
1:56 AM 34.0 °F 29.8 °F 30.9 °F 89% 29.50 in - North 4.6 mph - 0.02 in   Unknown
2:56 AM 34.0 °F 26.6 °F 30.9 °F 89% 29.50 in - NNW 9.2 mph - N/A   Unknown
3:56 AM 33.1 °F 26.1 °F 30.0 °F 89% 29.50 in - NNW 8.1 mph - 0.03 in   Unknown
4:56 AM 33.1 °F 23.9 °F 30.0 °F 89% 29.52 in - NW 12.7 mph - 0.04 in   Unknown
5:56 AM 34.0 °F 23.8 °F 30.0 °F 85% 29.56 in - NNW 16.1 mph 26.5 mph 0.03 in   Unknown
6:56 AM 34.0 °F 23.4 °F 30.9 °F 89% 29.61 in - NNW 17.3 mph 25.3 mph N/A   Unknown
7:56 AM 35.1 °F 25.5 °F 30.9 °F 85% 29.66 in - North 15.0 mph - N/A   Unknown
8:56 AM 35.1 °F 25.2 °F 30.0 °F 82% 29.70 in - NNW 16.1 mph - N/A   Unknown
9:56 AM 34.0 °F 23.8 °F 28.9 °F 82% 29.74 in - NNW 16.1 mph 25.3 mph N/A   Unknown
10:56 AM 35.1 °F 24.1 °F 28.0 °F 76% 29.78 in - North 19.6 mph 26.5 mph N/A   Unknown
11:56 AM 35.1 °F 25.2 °F 27.0 °F 72% 29.83 in - NNW 16.1 mph 21.9 mph N/A   Unknown
12:56 PM 34.0 °F 24.6 °F 27.0 °F 75% 29.88 in - NNW 13.8 mph 20.7 mph N/A   Unknown
1:56 PM 34.0 °F 24.6 °F 26.1 °F 73% 29.91 in - NNW 13.8 mph 19.6 mph N/A   Unknown
2:56 PM 34.0 °F 26.0 °F 27.0 °F 75% 29.92 in - North 10.4 mph - N/A   Unknown
3:56 PM 35.1 °F 25.9 °F 27.0 °F 72% 29.94 in - North 13.8 mph - N/A   Unknown
4:56 PM 35.1 °F 27.4 °F 27.0 °F 72% 29.97 in - NNW 10.4 mph - N/A   Unknown
5:56 PM 36.0 °F 29.6 °F 27.0 °F 70% 29.99 in - NNW 8.1 mph - N/A   Unknown
6:56 PM 35.1 °F 29.3 °F 26.1 °F 70% 29.99 in - NNW 6.9 mph - N/A   Unknown
7:56 PM 30.9 °F 26.2 °F 25.0 °F 79% 29.99 in - NE 4.6 mph - N/A   Unknown
8:56 PM 32.0 °F - 26.1 °F 79% 30.00 in - Calm Calm - N/A   Unknown
9:56 PM 30.0 °F - 25.0 °F 82% 30.02 in - Calm Calm - N/A   Unknown
10:56 PM 28.9 °F 25.2 °F 25.0 °F 85% 30.03 in - South 3.5 mph - N/A   Unknown
11:56 PM 30.0 °F 25.2 °F 25.0 °F 82% 30.03 in - SSW 4.6 mph - N/A   Unknown